N7JP Weather Reports


time (UTC)temp
F
wind
direction
speed
knots
gust
knots
rain 1hr
in
rain 24hr
in
rain mn
in
humidity
%
barometer
mb
20260505121629 53 149 1.7 6.1 0.00 0.00 0.00 90 1008.7
20260505120129 53 142 2.6 6.1 0.00 0.00 0.00 90 1008.6
20260505114609 53 168 1.7 5.2 0.00 0.00 0.00 90 1008.4
20260505113111 53 157 2.6 6.1 0.00 0.00 0.00 90 1008.4
20260505111550 53 126 2.6 7.0 0.00 0.00 0.00 90 1008.3
20260505101503 52 119 1.7 6.1 0.00 0.00 0.00 90 1007.9
20260505095940 52 127 1.7 6.1 0.00 0.00 0.00 91 1007.8
20260505094442 53 155 1.7 5.2 0.00 0.00 0.00 90 1007.6
20260505092917 53 127 1.7 6.1 0.00 0.00 0.00 90 1007.6
20260505091420 53 177 3.5 7.8 0.00 0.00 0.00 90 1007.4
20260505085918 53 98 2.6 7.8 0.00 0.00 0.00 90 1007.3
20260505084357 53 137 2.6 7.0 0.00 0.00 0.00 90 1007.3
20260505082848 54 140 1.7 7.8 0.00 0.00 0.00 90 1007.0
20260505081330 54 137 0.9 6.1 0.00 0.00 0.00 89 1007.0
20260505075823 54 147 1.7 7.0 0.00 0.00 0.00 89 1007.0
20260505074320 54 156 1.7 7.0 0.00 0.00 0.00 89 1006.9
20260505072820 54 159 0.9 6.1 0.00 0.00 0.00 88 1006.6
20260505071303 54 156 1.7 5.2 0.00 0.00 0.00 89 1006.5
20260505065745 53 112 1.7 3.5 0.00 0.00 0.00 89 1006.3
20260505064218 53 47 2.6 5.2 0.00 0.00 0.00 89 1006.2
20260505062656 53 128 0.9 2.6 0.00 0.00 0.00 88 1006.4
20260505061154 53 128 0.9 2.6 0.00 0.00 0.00 87 1006.1
20260505055654 53 128 0.9 1.7 0.00 0.00 0.00 87 1005.8
20260505054150 54 128 0.9 2.6 0.00 0.00 0.00 86 1005.6
20260505052622 55 128 0.9 3.5 0.00 0.00 0.00 85 1005.5
20260505051118 56 119 0.9 3.5 0.00 0.00 0.00 82 1005.5
20260505041045 59 72 3.5 7.8 0.00 0.00 0.00 75 1004.7
20260505035524 60 66 2.6 7.8 0.00 0.00 0.00 73 1004.6
20260505034018 61 49 1.7 5.2 0.00 0.00 0.00 73 1004.5
20260505032529 62 48 0.0 2.6 0.00 0.00 0.00 73 1004.3
20260505031001 63 25 0.0 5.2 0.00 0.00 0.00 72 1004.1
20260505025500 64 59 2.6 5.2 0.00 0.00 0.00 67 1004.0
20260505023955 65 55 1.7 4.3 0.00 0.00 0.00 67 1003.9
20260505022452 66 53 0.9 4.3 0.00 0.00 0.00 65 1003.9
20260505020954 67 317 2.6 7.0 0.00 0.00 0.00 65 1004.0
20260505015427 67 0 0.0 2.6 0.00 0.00 0.00 63 1004.0
20260505013920 67 42 0.9 3.5 0.00 0.00 0.00 62 1004.2
20260505012422 69 33 1.7 6.1 0.00 0.00 0.00 58 1004.3
20260505010852 69 301 1.7 6.1 0.00 0.00 0.00 55 1004.4
20260505005352 70 51 1.7 4.3 0.00 0.00 0.00 55 1004.5
20260505003851 72 307 2.6 7.8 0.00 0.00 0.00 53 1004.4
20260505002342 71 52 2.6 8.7 0.00 0.00 0.00 51 1004.4
20260505000825 72 306 2.6 7.0 0.00 0.00 0.00 52 1004.4
20260504235323 72 57 1.7 4.3 0.00 0.00 0.00 50 1004.4
20260504233804 74 342 2.6 5.2 0.00 0.00 0.00 50 1004.4
20260504232304 74 296 1.7 3.5 0.00 0.00 0.00 50 1004.4
20260504230739 73 296 1.7 3.5 0.00 0.00 0.00 52 1004.4
20260504225238 73 298 1.7 3.5 0.00 0.00 0.00 55 1004.5
20260504223736 72 298 2.6 4.3 0.00 0.00 0.00 54 1004.5
20260504222210 73 310 1.7 4.3 0.00 0.00 0.00 52 1004.7
20260504220711 74 296 0.9 2.6 0.00 0.00 0.00 52 1004.9
20260504215210 72 301 1.7 6.1 0.00 0.00 0.00 54 1005.0
20260504213641 71 266 0.9 3.5 0.00 0.00 0.00 61 1005.1
20260504212140 71 302 2.6 4.3 0.00 0.00 0.00 61 1005.2
20260504210640 72 253 1.7 5.2 0.00 0.00 0.00 55 1005.3
20260504205130 72 288 2.6 5.2 0.00 0.00 0.00 58 1005.4
20260504203612 72 255 1.7 3.5 0.00 0.00 0.00 58 1005.3
20260504202111 73 281 1.7 2.6 0.00 0.00 0.00 55 1005.3
20260504200550 73 282 0.9 3.5 0.00 0.00 0.00 57 1005.4
20260504195050 73 290 0.9 3.5 0.00 0.00 0.00 56 1005.5
20260504193539 72 270 0.9 3.5 0.00 0.00 0.00 62 1005.4
20260504192030 71 298 0.9 3.5 0.00 0.00 0.00 53 1005.5
20260504190504 70 227 1.7 4.3 0.00 0.00 0.00 65 1005.5
20260504185002 69 269 1.7 2.6 0.00 0.00 0.00 57 1005.6
20260504183440 69 242 1.7 3.5 0.00 0.00 0.00 62 1005.7
20260504181940 69 272 0.9 2.6 0.00 0.00 0.00 62 1005.8
20260504180421 68 271 0.9 3.5 0.00 0.00 0.00 62 1005.7
20260504174922 68 232 0.9 3.5 0.00 0.00 0.00 64 1005.6
20260504173419 67 277 0.9 2.6 0.00 0.00 0.00 65 1005.6
20260504171917 66 290 0.9 2.6 0.00 0.00 0.00 68 1005.7
20260504170416 65 290 0.0 2.6 0.00 0.00 0.00 65 1005.6
20260504160318 64 322 0.0 0.0 0.00 0.00 0.00 76 1005.5
20260504150250 53 242 0.0 0.0 0.00 0.00 0.00 85 1005.3
20260504140151 49 338 0.0 0.9 0.00 0.00 0.00 91 1004.7
20260504130122 49 338 0.0 0.9 0.00 0.00 0.00 90 1004.4